Location: Acequia del Cap
(41.7000°N, 0.6167°E)
Time: 01:18:07
(UTC+00:00)

USA 267 - Pass Details

Date: 07 August 2020
Orbit: 1102 x 1106 km, 123.0° (Epoch: 18 September)

Event Time Altitude Azimuth Distance (km) Brightness Sun altitude
Rises 03:55:25 0° 142° (SE) 3,905 6.2 -11.1°
Reaches altitude 10° 03:57:56 10° 146° (SE) 2,950 5.5 -10.7°
Maximum altitude 04:04:22 62° 226° (SW) 1,223 3.3 -9.7°
Drops below altitude 10° 04:10:51 10° 307° (NW) 2,964 5.3 -8.7°
Sets 04:13:23 0° 311° (NW) 3,925 6.0 -8.3°
